Regional Weather Roundup
Issued by NWS San Diego, CA

Home | Current Version | Previous Version | Text Only | Print | Product List | Glossary On
Versions: 1 2 3 4 5 6 7 8 9 10 11 12 13 14 15 16 17 18 19 20 21 22 23 24 25 26 27 28 29 30 31 32 33 34 35 36 37 38 39 40 41 42 43 44 45 46 47 48 49 50
000
ASUS46 KSGX 260611
RWRSGX

SAN DIEGO HOURLY WEATHER ROUNDUP
NATIONAL WEATHER SERVICE SAN DIEGO CA
1100 PM PDT WED MAY 25 2016

NOTE: "FAIR" INDICATES FEW OR NO CLOUDS BELOW 12,000 FEET WITH NO
SIGNIFICANT WEATHER AND/OR OBSTRUCTIONS TO VISIBILITY.

CAZ042-043-060-061-PZZ750-775-260700-

GREATER SAN DIEGO AREA

CITY           SKY/WX    TMP DP  RH WIND       PRES   REMARKS
LINDBERGH FLD  MOCLDY    63  52  67 W3        30.12S
POINT LOMA       N/A     60  52  74 W7          N/A
NATIONAL CITY    N/A     62  54  74 CALM      30.13R
CHULA VISTA      N/A     61  55  79 CALM      30.04S
IMPERIAL BEACH MOCLDY    62  52  69 W7        30.12S
BROWN FIELD    MOCLDY    58  52  80 W6        30.11S
MIRAMAR MCAS   PTCLDY    59  49  69 CALM      30.10S
MONTGOMERY FLD CLEAR     60  51  72 SW5       30.11S

$$

NORTH SAN DIEGO COUNTY

CITY           SKY/WX    TMP DP  RH WIND       PRES   REMARKS
CAMP PENDLETON CLEAR     55  51  86 CALM      30.09F
OCEANSIDE AP   CLEAR     55  49  80 CALM      30.09S
OCEANSIDE HBR    N/A     62  56  82 CALM      30.12S
VISTA            N/A     58  53  83 CALM      30.08S
CARLSBAD       PTCLDY    61  53  75 SE5       30.09F
DEL MAR          N/A     58  54  86 CALM      30.13S
LA JOLLA SCRIP   N/A     60  55  82 SW3       30.10S
FALLBROOK        N/A     57  55  94 CALM      30.07S
ESCONDIDO        N/A     58  52  79 CALM      30.12S
SAN MARCOS       N/A     58  48  70 CALM      30.08F
POWAY            N/A     54  48  80 CALM      30.12S

$$

EAST SAN DIEGO COUNTY

CITY           SKY/WX    TMP DP  RH WIND       PRES   REMARKS
RAMONA         CLEAR     48  42  80 CALM      30.10F
SANTEE LAKES     N/A     55  49  81 CALM      30.10S
LA MESA          N/A     56  50  80 CALM      30.05
DESCANSO N       N/A     44  40  88 CALM      30.02R
MT. LAGUNA OBS   N/A     37  37 100 NW5       29.68R WCI  33
CAMPO            N/A     51  43  74 W9        30.07R

$$

ORANGE COUNTY AND THE LOS ANGELES BASIN

CITY           SKY/WX    TMP DP  RH WIND       PRES   REMARKS
JOHN WAYNE AP  CLEAR     60  53  77 SW3       30.09S
LAKE FOREST FR   N/A     54  46  73 CALM      30.00S
HUNTINGTON BCH   N/A     60  56  88 W1        30.11S
LOS ALAMITOS   FAIR      59  54  84 SE2       30.08F
FULLERTON      CLEAR     61  53  75 SE5       30.08S
LONG BEACH     CLEAR     61  53  75 NW7       30.09S
L.A. AP        PTCLDY    58  53  84 W9        30.09R
L.A. DOWNTOWN  CLEAR     60  53  77 CALM      30.08S

$$

THE INLAND EMPIRE

CITY           SKY/WX    TMP DP  RH WIND       PRES   REMARKS
CORONA         CLEAR     56  46  69 W3        30.09F
CHINO          CLEAR     55  47  74 W5        30.09F
ONTARIO        PTCLDY    57  45  64 W6        30.08F
RIVERSIDE AP   MOCLDY    60  43  53 W3        30.09S
MORENO VALLEY    N/A     57  48  73 W2        28.20S
MARCH ARB      PTCLDY    57  39  50 NW6       30.09S
HORSETHIEF CYN   N/A     55  39  55 W3        30.11F
PERRIS           N/A     58  47  67 S2        30.09S
HEMET EAST       N/A     53  44  71 CALM      30.00F
FRENCH VALLEY  CLOUDY    54  48  82 SE3       30.10F
TEMECULA         N/A     56  53  86 S2        30.06S

$$

SAN BERNARDINO AND RIVERSIDE COUNTY MOUNTAINS

CITY           SKY/WX    TMP DP  RH WIND       PRES   REMARKS
BIG BEAR AP    CLEAR     37  34  87 SW5       30.14R WCI  34
PINE COVE        N/A     38  37  97 N3        30.11S

$$

SOUTHERN DESERT INCLUDING THE COACHELLA VALLEY

CITY           SKY/WX    TMP DP  RH WIND       PRES   REMARKS
PALM SPRINGS   CLEAR     68  39  34 W16G38    29.95R
THOUSAND PALMS   N/A     66  43  42 NW23      29.93S
PALM DESERT      N/A     68  44  41 CALM        N/A
THERMAL        CLEAR     69  42  37 N20G26    29.91R
BLYTHE         PTCLDY    71  45  39 SW7       29.89R
IMPERIAL AP    CLEAR     66  44  45 W15       29.92S
EL CENTRO NAS  CLEAR     66  42  41 W21       29.95S
YUMA AZ        CLEAR     66  41  40 W8        29.93S
MEXICALI       CLEAR     68  37  32 W14       29.93S

$$

UPPER DESERT

CITY           SKY/WX    TMP DP  RH WIND       PRES   REMARKS
VICTORVILLE AP CLEAR     57  37  47 W12G17    30.05S
HESPERIA         N/A     51  42  71 W8        30.16F
PALMDALE       CLEAR     59  42  53 W15       30.06R
LANCASTER      CLEAR     61  40  45 W15       30.04S
EDWARDS AFB    CLEAR     62  41  46 SW10      30.01S
DAGGETT        CLEAR     63  42  46 SW21      29.99R
29 PALMS N     PTCLDY    62  41  46 NW15G22   30.04S
NEEDLES        CLEAR     75  36  24 NW10      29.88R

$$

REGIONAL REPORTS

CITY           SKY/WX    TMP DP  RH WIND       PRES   REMARKS
SANTA BARBARA  CLEAR     61  48  62 N14       30.04F
SANDBERG       CLEAR     53  40  61 NW15      30.13R
LAS VEGAS NV   PTCLDY    68  36  30 W8        29.88S
PHOENIX AZ     CLEAR     76  24  14 W8        29.87R
TIJUANA        PTCLDY    57  48  72 W8        30.14R
ENSENADA NW      N/A     59  32  35 NW3       30.10S

$$

OFFSHORE ISLANDS

CITY           SKY/WX    TMP DP  RH WIND       PRES   REMARKS
CATALINA ARPT  CLOUDY    52  51  97 W13       30.10S
SAN NICOLAS IS PTCLDY   N/A N/A N/A NW29      30.09S

$$

MARINE AND OFFSHORE BUOY REPORTS

STATION/POSITION SKY/WX   TEMP    WIND        PRES    SWELL
                          AIR SEA DIR/SP/G            HT/PER/DIR
                          (F)     (DEG/KT/KT) (MB)    (FT/S/D)
TANNER BANKS               59 62  320/ 19/ 25 1020.1F   2/240/15
S CLEMENTE BASIN           59 63  280/ 14/ 16 1019.6S   2/ 40/14
SAN NICOLAS IS.               60                N/A     2/220/15
SO. S. ROSA ISLA           57 59  320/ 27/ 31 1019.1S   2/310/10
W. S. BARBARA CH           56 54  330/ 21/ 25 1019.0R   2/330/10
M. S. BARBARA CH           59 58  270/ 17/ 21 1018.3R
S. MONICA BASIN            60 63   CALM  /  2 1018.6R   5/270/ 7
S PEDRO CHANNEL               64                N/A
OCEANSIDE OFFSHR              65                N/A     2/210/13
TORREY PINES OTR              65                N/A     2/210/14
LA JOLLA 1                 62 67  340/  3/  5 1019.3R
SAN DIEGO BAY                 70              1019.8R
POINT LOMA SOUTH              66                N/A     2/220/14

$$




USA.gov is the U.S. government's official web portal to all federal, state and local government web resources and services.